Location: Centerville
(32.8776°N, 96.6203°W)
Time: 02:12:51
(UTC+00:00)

Resurs 1-3 - Pass Details

Date: 17 June 2021
Orbit: 629 x 632 km, 97.9° (Epoch: 27 July)

Event Time Altitude Azimuth Distance (km) Brightness Sun altitude
Exits shadow 02:55:18 14° 174° (S) 1,770 5.5 -14.4°
Maximum altitude 02:59:05 73° 258° (WSW) 662 3.7 -15.0°
Drops below altitude 10° 03:03:29 10° 344° (NNW) 2,018 7.1 -15.7°
Sets 03:05:41 0° 346° (NNW) 2,930 8.0 -16.0°
